�N����,����,�~����,�C��,���x,�C��,����,���ϕ���,�ő�u�ԕ���,�ő厞����,���˗�,�I�_���x,�n�����x,�ő啗���N��,DTYPE
"17/11/21","00:10",0.0,5.1,84.0,1016.4,267.2,1.7,2.7,236.7,0.00,2.7,9.0,"00:05:08",1
"17/11/21","00:20",0.0,4.7,84.4,1016.6,260.7,1.0,1.7,274.4,0.00,2.3,8.7,"00:14:48",1
"17/11/21","00:30",0.0,4.8,86.2,1016.6,262.6,1.5,2.7,237.6,0.00,2.7,8.8,"00:23:12",1
"17/11/21","00:40",0.0,4.6,84.9,1016.6,273.5,1.1,2.2,330.8,0.00,2.3,8.7,"00:30:32",1
"17/11/21","00:50",0.0,4.4,87.2,1017.1,240.1,1.3,2.8,243.3,0.00,2.5,8.7,"00:45:28",1
"17/11/21","01:00",0.0,4.3,87.7,1016.6,294.4,0.5,1.6,248.1,0.00,2.5,8.6,"00:51:12",1
"17/11/21","01:10",0.0,3.9,88.9,1017.1,245.7,0.6,1.6,274.5,0.00,2.3,8.6,"01:00:02",1
"17/11/21","01:20",0.0,4.0,90.7,1017.1,243.5,1.0,2.0,246.4,0.00,2.7,8.6,"01:12:32",1
"17/11/21","01:30",0.0,4.2,90.8,1017.1,260.1,1.3,2.8,244.5,0.00,2.9,8.3,"01:29:28",1
"17/11/21","01:40",0.0,3.9,90.1,1017.3,296.8,1.8,2.8,325.2,0.00,2.5,8.6,"01:31:04",1
"17/11/21","01:50",0.0,4.1,90.4,1017.3,286.3,1.7,3.5,238.5,0.00,2.7,8.6,"01:41:40",1
"17/11/21","02:00",0.0,4.0,91.0,1017.3,259.2,1.0,2.2,237.2,0.00,2.7,8.6,"01:59:48",1
"17/11/21","02:10",0.0,3.8,90.8,1017.3,258.1,1.3,2.5,244.9,0.00,2.5,8.3,"02:09:52",1
"17/11/21","02:20",0.0,4.0,91.3,1017.8,272.7,1.2,2.9,239.6,0.00,2.8,8.6,"02:11:38",1
"17/11/21","02:30",0.0,4.3,91.0,1017.3,252.2,1.3,2.2,242.4,0.00,3.0,8.5,"02:22:14",1
"17/11/21","02:40",0.0,4.5,90.0,1017.3,241.9,2.2,3.3,233.6,0.00,3.0,8.7,"02:34:08",1
"17/11/21","02:50",0.0,4.4,90.0,1017.8,269.4,1.6,3.4,238.6,0.00,2.9,8.3,"02:46:06",1
"17/11/21","03:00",0.0,4.6,89.9,1017.5,272.6,1.7,3.5,288.8,0.00,3.1,8.2,"02:52:12",1
"17/11/21","03:10",0.0,4.6,89.0,1018.0,278.8,2.0,3.5,265.6,0.00,3.0,8.6,"03:07:10",1
"17/11/21","03:20",0.0,4.6,88.6,1018.2,282.2,1.8,2.9,221.2,0.00,2.9,8.3,"03:16:38",1
"17/11/21","03:30",0.0,4.7,88.7,1018.2,273.6,1.8,4.0,255.0,0.00,3.0,8.5,"03:26:04",1
"17/11/21","03:40",0.0,4.5,88.6,1018.2,279.2,1.6,2.0,306.5,0.00,2.8,8.5,"03:34:28",1
"17/11/21","03:50",0.0,4.4,89.4,1018.2,274.1,1.6,3.4,292.4,0.00,2.9,8.2,"03:45:10",1
"17/11/21","04:00",0.0,4.1,89.8,1017.8,286.1,1.6,2.6,255.2,0.00,2.6,8.3,"03:57:18",1
"17/11/21","04:10",0.0,4.0,90.4,1018.5,286.6,1.6,2.0,249.4,0.00,2.6,8.3,"04:02:36",1
"17/11/21","04:20",0.0,3.8,91.6,1018.0,310.9,1.1,1.3,280.4,0.00,2.6,8.5,"04:15:16",1
"17/11/21","04:30",0.0,4.1,91.4,1018.0,281.5,1.8,3.3,299.6,0.00,2.9,8.4,"04:25:48",1
"17/11/21","04:40",0.0,4.3,91.0,1018.2,276.2,1.8,4.0,302.4,0.00,3.0,8.4,"04:31:50",1
"17/11/21","04:50",0.0,4.3,90.1,1018.2,278.5,2.0,3.5,262.2,0.00,2.9,8.1,"04:41:24",1
"17/11/21","05:00",0.0,4.3,90.0,1018.2,282.4,2.0,3.6,262.9,0.00,2.8,8.2,"04:58:22",1
"17/11/21","05:10",0.0,4.2,89.5,1018.5,315.1,1.8,2.6,287.4,0.00,2.7,8.4,"05:02:26",1
"17/11/21","05:20",0.0,3.7,91.2,1018.5,313.0,2.0,3.2,320.1,0.00,2.4,8.5,"05:10:08",1
"17/11/21","05:30",0.0,3.3,92.4,1018.0,340.3,1.2,1.7,322.9,0.00,2.2,8.3,"05:22:16",1
"17/11/21","05:40",0.0,2.8,93.5,1018.7,319.5,2.0,3.3,320.1,0.00,1.9,8.2,"05:33:18",1
"17/11/21","05:50",0.0,2.5,94.6,1018.5,327.0,2.0,2.7,317.5,0.00,1.8,7.9,"05:43:58",1
"17/11/21","06:00",0.0,2.2,95.9,1018.5,300.7,1.8,2.5,325.7,0.00,1.7,8.2,"05:57:12",1
"17/11/21","06:10",0.0,2.0,96.3,1019.0,306.8,1.7,3.2,318.9,0.00,1.5,8.2,"06:08:26",1
"17/11/21","06:20",0.0,2.0,96.8,1019.0,307.5,1.8,2.6,306.5,0.00,1.6,8.1,"06:16:32",1
"17/11/21","06:30",0.0,2.1,97.8,1018.5,303.4,2.0,3.2,319.2,0.00,1.8,8.2,"06:24:32",1
"17/11/21","06:40",0.0,2.5,97.5,1019.0,335.5,1.0,2.2,321.5,0.00,2.2,7.9,"06:30:16",1
"17/11/21","06:50",0.0,2.3,96.5,1019.0,303.8,1.5,3.1,313.4,0.00,1.8,8.1,"06:49:44",1
"17/11/21","07:00",0.0,2.1,97.4,1019.0,322.7,2.1,3.2,319.4,0.00,1.8,8.1,"06:51:40",1
"17/11/21","07:10",0.0,2.3,98.0,1019.0,311.7,2.5,3.2,318.9,0.00,2.1,8.0,"07:00:48",1
"17/11/21","07:20",0.0,2.7,96.5,1019.4,323.5,1.8,2.7,327.5,0.00,2.2,8.2,"07:15:06",1
"17/11/21","07:30",0.0,2.9,97.0,1019.7,312.9,1.0,2.0,327.5,0.00,2.5,8.1,"07:20:32",1
"17/11/21","07:40",0.0,3.3,97.0,1020.4,237.9,0.3,0.9,244.6,0.03,2.9,8.1,"07:31:36",1
"17/11/21","07:50",0.0,3.8,96.2,1020.1,254.2,0.6,1.2,254.5,0.04,3.3,8.1,"07:49:28",1
"17/11/21","08:00",0.0,4.1,95.5,1020.6,350.6,0.3,0.9,269.4,0.02,3.5,8.0,"07:50:16",1
"17/11/21","08:10",0.0,4.2,94.9,1020.1,304.1,0.8,1.3,306.6,0.02,3.5,8.0,"08:03:38",1
"17/11/21","08:20",0.0,4.3,95.0,1020.6,316.9,1.0,2.4,334.4,0.03,3.6,8.1,"08:17:04",1
"17/11/21","08:30",0.0,4.4,95.3,1020.8,323.2,1.3,2.1,309.9,0.05,3.8,7.9,"08:20:24",1
"17/11/21","08:40",0.0,5.7,93.6,1020.8,309.2,1.7,2.8,317.6,0.16,4.8,8.1,"08:36:48",1
"17/11/21","08:50",0.0,5.7,90.3,1021.1,277.5,1.3,2.2,324.4,0.18,4.3,8.3,"08:41:28",1
"17/11/21","09:00",0.0,5.9,89.2,1021.1,260.3,0.8,1.3,262.1,0.09,4.3,8.3,"08:50:56",1
"17/11/21","09:10",0.0,5.8,88.2,1021.5,288.6,1.1,2.4,322.5,0.09,4.0,8.5,"09:03:36",1
"17/11/21","09:20",0.0,5.8,88.8,1021.5,320.4,0.7,1.9,314.3,0.10,4.1,8.6,"09:10:56",1
"17/11/21","09:30",0.0,6.5,86.7,1021.5,237.7,0.6,1.1,279.5,0.23,4.5,8.9,"09:21:52",1
"17/11/21","09:40",0.0,7.3,85.6,1022.0,258.5,1.0,1.6,248.3,0.28,5.1,9.0,"09:32:56",1
"17/11/21","09:50",0.0,7.2,83.6,1021.8,262.8,1.5,2.7,245.3,0.34,4.7,8.9,"09:41:52",1
"17/11/21","10:00",0.0,8.3,85.1,1022.0,267.3,0.7,1.8,250.6,0.35,6.0,9.3,"09:54:56",1
"17/11/21","10:10",0.0,8.2,81.7,1022.3,146.5,1.0,2.6,89.4,0.43,5.3,9.4,"10:06:16",1
"17/11/21","10:20",0.0,8.7,77.8,1022.0,295.1,0.8,1.8,258.2,0.37,5.1,9.7,"10:16:08",1
"17/11/21","10:30",0.0,8.7,77.9,1021.8,142.1,0.7,1.4,112.8,0.38,5.1,10.0,"10:27:04",1
"17/11/21","10:40",0.0,9.3,77.7,1022.0,175.3,0.8,1.9,108.3,0.31,5.7,9.8,"10:32:08",1
"17/11/21","10:50",0.0,8.8,77.1,1022.3,341.7,0.7,1.9,347.7,0.18,5.1,10.1,"10:49:36",1
"17/11/21","11:00",0.0,9.2,76.4,1022.0,340.5,1.6,5.1,333.5,0.11,5.3,10.3,"10:59:30",1
"17/11/21","11:10",0.0,9.1,77.2,1021.5,331.8,2.3,4.9,340.3,0.16,5.4,10.3,"11:08:18",1
"17/11/21","11:20",0.0,9.2,77.9,1021.3,330.7,2.6,4.9,328.5,0.16,5.6,10.5,"11:15:44",1
"17/11/21","11:30",0.0,9.5,72.8,1020.6,307.0,2.0,3.5,340.2,0.38,4.9,10.5,"11:22:56",1
"17/11/21","11:40",0.0,10.2,70.2,1020.8,258.4,1.5,3.2,242.0,0.45,5.1,10.7,"11:31:12",1
"17/11/21","11:50",0.0,9.7,70.3,1020.8,228.1,1.2,3.3,238.4,0.33,4.6,10.7,"11:43:28",1
"17/11/21","12:00",0.0,10.4,68.5,1020.6,317.7,1.6,3.4,342.3,0.10,4.9,10.8,"11:50:02",1
"17/11/21","12:10",0.0,9.3,69.1,1020.6,321.7,3.7,5.8,319.7,0.10,4.0,10.9,"12:04:54",1
"17/11/21","12:20",0.0,9.8,69.9,1020.1,325.3,3.0,5.1,337.7,0.23,4.6,11.1,"12:14:24",1
"17/11/21","12:30",0.0,10.4,67.2,1020.1,351.3,2.1,4.5,326.5,0.36,4.6,11.1,"12:23:20",1
"17/11/21","12:40",0.0,11.2,65.2,1019.9,4.4,1.7,5.0,341.7,0.49,5.0,11.2,"12:33:44",1
"17/11/21","12:50",0.0,10.0,67.5,1020.4,321.1,2.5,5.0,341.3,0.21,4.3,11.1,"12:45:36",1
"17/11/21","13:00",0.0,10.1,67.8,1019.9,331.5,1.8,3.4,314.0,0.21,4.5,11.2,"12:53:20",1
"17/11/21","13:10",0.0,9.9,69.8,1020.1,357.2,1.6,3.7,37.5,0.11,4.7,11.2,"13:00:48",1
"17/11/21","13:20",0.0,10.1,69.0,1019.9,335.7,2.0,3.6,325.9,0.14,4.7,11.2,"13:11:28",1
"17/11/21","13:30",0.0,10.5,66.2,1019.7,344.4,1.7,3.7,356.9,0.18,4.5,11.4,"13:26:08",1
"17/11/21","13:40",0.0,10.3,67.5,1019.7,340.4,1.7,3.7,321.8,0.15,4.6,11.3,"13:32:40",1
"17/11/21","13:50",0.0,10.1,70.7,1019.9,347.4,2.1,3.3,346.1,0.13,5.1,11.3,"13:49:24",1
"17/11/21","14:00",0.0,9.8,73.8,1019.7,345.7,2.3,5.0,335.9,0.13,5.4,11.3,"13:56:00",1
"17/11/21","14:10",0.0,9.9,73.1,1019.9,343.4,2.3,3.9,328.3,0.09,5.4,11.2,"14:05:04",1
"17/11/21","14:20",0.0,9.6,74.2,1019.9,331.2,3.0,4.7,326.5,0.06,5.3,11.2,"14:14:18",1
"17/11/21","14:30",0.0,9.5,75.6,1019.7,317.3,2.8,4.2,321.9,0.06,5.4,11.3,"14:20:24",1
"17/11/21","14:40",0.0,9.6,74.9,1019.9,326.0,2.7,4.8,334.3,0.08,5.4,11.3,"14:38:24",1
"17/11/21","14:50",0.0,9.6,72.6,1019.7,339.7,2.5,3.9,314.9,0.10,5.0,11.2,"14:40:48",1
"17/11/21","15:00",0.0,9.5,72.3,1019.7,336.2,2.6,4.7,320.0,0.07,4.8,11.2,"14:51:04",1
"17/11/21","15:10",0.0,10.2,70.8,1019.7,325.8,2.5,4.4,331.4,0.14,5.2,11.2,"15:04:56",1
"17/11/21","15:20",0.0,10.4,69.0,1019.4,317.5,2.3,4.8,328.0,0.14,5.0,11.2,"15:17:28",1
"17/11/21","15:30",0.0,10.2,69.5,1019.4,327.2,2.8,5.9,322.9,0.09,4.9,11.3,"15:25:12",1
"17/11/21","15:40",0.0,10.0,70.9,1019.4,320.6,2.6,5.4,340.8,0.07,5.0,11.2,"15:33:52",1
"17/11/21","15:50",0.0,10.3,69.6,1019.7,324.8,2.6,4.5,341.3,0.05,5.0,11.2,"15:41:04",1
"17/11/21","16:00",0.0,10.0,70.9,1019.2,327.5,2.2,3.9,322.8,0.04,5.0,11.2,"15:53:20",1
"17/11/21","16:10",0.0,9.6,72.9,1019.2,320.0,2.3,3.6,329.3,0.01,5.0,11.1,"16:00:56",1
"17/11/21","16:20",0.0,9.0,74.8,1019.4,322.5,2.1,2.5,326.6,0.00,4.8,11.0,"16:14:24",1
"17/11/21","16:30",0.0,8.3,77.4,1019.2,292.1,1.2,2.0,321.1,0.00,4.6,10.9,"16:22:08",1
"17/11/21","16:40",0.0,7.6,80.5,1019.2,295.4,1.3,1.9,306.2,0.00,4.5,11.0,"16:32:08",1
"17/11/21","16:50",0.0,7.1,83.9,1019.2,301.5,1.6,2.7,323.5,0.00,4.6,10.8,"16:44:08",1
"17/11/21","17:00",0.0,6.7,86.1,1018.7,295.8,2.1,3.1,311.1,0.00,4.6,10.6,"16:53:52",1
"17/11/21","17:10",0.0,6.4,87.3,1019.0,288.0,1.8,2.4,313.5,0.00,4.5,10.6,"17:05:28",1
"17/11/21","17:20",0.0,6.2,88.3,1019.4,277.1,2.0,2.5,275.8,0.00,4.5,10.7,"17:18:56",1
"17/11/21","17:30",0.0,5.9,89.0,1019.2,283.9,2.2,3.5,308.2,0.00,4.3,10.5,"17:25:36",1
"17/11/21","17:40",0.0,5.8,89.6,1019.2,293.8,2.5,3.7,314.3,0.00,4.3,10.2,"17:38:16",1
"17/11/21","17:50",0.0,5.8,89.9,1019.7,306.5,2.8,4.1,312.5,0.00,4.3,10.2,"17:44:48",1
"17/11/21","18:00",0.0,5.6,90.4,1019.2,295.8,2.7,3.4,285.5,0.00,4.2,10.4,"17:54:56",1
"17/11/21","18:10",0.0,5.6,90.2,1019.2,302.5,2.7,4.2,325.5,0.00,4.2,10.0,"18:00:56",1
"17/11/21","18:20",0.0,5.3,90.9,1019.0,285.1,2.2,3.5,313.6,0.00,4.0,10.2,"18:11:04",1
"17/11/21","18:30",0.0,5.2,91.1,1019.4,282.9,2.1,3.5,311.3,0.00,3.9,9.9,"18:26:16",1
"17/11/21","18:40",0.0,5.2,91.4,1019.2,288.4,2.3,4.0,320.2,0.00,4.0,10.0,"18:38:08",1
"17/11/21","18:50",0.0,5.0,90.8,1019.2,284.7,2.0,3.4,308.3,0.00,3.7,10.0,"18:40:16",1
"17/11/21","19:00",0.0,4.7,91.9,1019.2,276.1,1.7,2.5,282.5,0.00,3.5,9.7,"18:53:30",1
"17/11/21","19:10",0.0,4.5,92.3,1019.7,287.4,1.3,2.4,308.4,0.00,3.4,9.7,"19:04:32",1
"17/11/21","19:20",0.0,4.4,93.6,1019.7,321.3,1.5,2.5,329.5,0.00,3.5,9.8,"19:16:36",1
"17/11/21","19:30",0.0,4.1,93.2,1019.7,320.6,1.1,1.7,312.4,0.00,3.1,9.7,"19:24:08",1
"17/11/21","19:40",0.0,4.0,95.0,1019.7,317.6,1.8,2.5,321.3,0.00,3.3,9.6,"19:31:04",1
"17/11/21","19:50",0.0,3.9,95.2,1019.7,298.8,1.7,3.2,324.2,0.00,3.2,9.5,"19:49:20",1
"17/11/21","20:00",0.0,3.8,94.2,1019.7,307.6,1.6,3.3,335.2,0.00,3.0,9.4,"19:50:56",1
"17/11/21","20:10",0.0,3.2,94.2,1019.4,290.0,1.2,1.8,316.1,0.00,2.4,9.3,"20:00:08",1
"17/11/21","20:20",0.0,2.7,95.2,1019.2,294.9,1.3,1.7,313.1,0.00,2.0,9.3,"20:12:00",1
"17/11/21","20:30",0.0,2.6,96.4,1018.7,307.2,1.8,2.7,314.8,0.00,2.1,9.0,"20:23:44",1
"17/11/21","20:40",0.0,2.4,97.0,1018.7,302.4,2.0,2.9,312.3,0.00,2.0,9.4,"20:34:56",1
"17/11/21","20:50",0.0,2.2,97.6,1019.2,294.2,1.8,2.7,313.7,0.00,1.9,9.0,"20:41:36",1
"17/11/21","21:00",0.0,2.2,97.9,1019.0,289.0,1.6,1.9,308.5,0.00,1.9,8.9,"20:58:48",1
"17/11/21","21:10",0.0,2.2,97.8,1019.2,300.1,1.7,2.1,313.2,0.00,1.9,9.1,"21:03:44",1
"17/11/21","21:20",0.0,2.2,98.4,1018.7,284.2,1.7,2.6,309.8,0.00,2.0,8.8,"21:16:48",1
"17/11/21","21:30",0.0,2.5,97.1,1019.0,285.8,1.6,2.7,315.4,0.00,2.1,8.9,"21:29:52",1
"17/11/21","21:40",0.0,1.7,97.7,1018.7,306.0,2.5,3.1,313.5,0.00,1.4,8.7,"21:31:12",1
"17/11/21","21:50",0.0,1.7,98.7,1019.0,306.6,1.8,2.4,312.7,0.00,1.6,8.7,"21:44:56",1
"17/11/21","22:00",0.0,1.7,97.9,1019.0,298.4,1.5,2.4,314.1,0.00,1.4,8.5,"21:50:08",1
"17/11/21","22:10",0.0,1.3,98.7,1018.7,309.2,2.2,2.8,324.5,0.00,1.2,8.6,"22:06:48",1
"17/11/21","22:20",0.0,1.3,98.0,1018.7,310.3,2.1,2.5,319.4,0.00,1.1,8.3,"22:10:16",1
"17/11/21","22:30",0.0,1.2,98.5,1019.0,287.0,1.3,1.7,282.7,0.00,1.0,8.5,"22:25:44",1
"17/11/21","22:40",0.0,1.6,99.2,1018.7,323.6,1.8,2.5,324.1,0.00,1.5,8.4,"22:34:40",1
"17/11/21","22:50",0.0,1.3,97.4,1018.2,293.5,1.6,2.5,311.4,0.00,1.0,8.4,"22:41:12",1
"17/11/21","23:00",0.0,1.2,100.0,1018.7,302.7,1.3,2.1,319.3,0.00,1.2,8.2,"22:59:20",1
"17/11/21","23:10",0.0,1.4,98.7,1018.5,313.3,1.8,2.7,313.8,0.00,1.3,8.4,"23:04:08",1
"17/11/21","23:20",0.0,1.1,98.5,1018.2,306.1,1.5,2.0,322.9,0.00,0.9,8.2,"23:18:08",1
"17/11/21","23:30",0.0,1.2,99.4,1018.2,288.0,1.3,1.9,301.8,0.00,1.2,8.2,"23:27:52",1
"17/11/21","23:40",0.0,1.5,98.4,1018.0,305.9,1.7,2.6,324.3,0.00,1.3,8.2,"23:36:16",1
"17/11/21","23:50",0.0,0.9,97.9,1018.0,302.0,1.5,2.4,323.4,0.00,0.6,8.2,"23:43:28",1
"17/11/21","24:00",0.0,0.4,99.7,1018.0,287.7,0.8,1.2,296.5,0.00,0.4,8.2,"23:58:24",1
